Location: Unspecified
(48.2082°N, 0.0000°E)
Time: 23:07:16
(UTC+00:00)

A-11 Canister half - Pass Details

Date: 20 June 2019
Orbit: 1514 x 1686 km, 47.2° (Epoch: 12 October)

Event Time Altitude Azimuth Distance (km) Brightness Sun altitude
Rises 14:18:43 0° 271° (W) 4,848 12.1 53.3°
Reaches altitude 10° 14:21:52 10° 271° (W) 3,839 11.8 52.8°
Maximum altitude 14:31:38 85° 185° (S) 1,581 10.2 51.4°
Drops below altitude 10° 14:41:03 10° 99° (E) 3,707 10.8 50.0°
Sets 14:44:03 0° 99° (E) 4,675 11.2 49.5°
